| time (UTC) | temp F | wind direction | speed MPH | gust MPH | rain 1hr in | rain 24hr in | rain mn in | humidity % | barometer mb |
| 20260507081558 | 48 | 235 | 0.0 | 0.0 | 0.00 | 0.00 | 0.00 | 90 | 1019.3 |
| 20260507080056 | 48 | 235 | 0.0 | 0.0 | 0.00 | 0.00 | 0.00 | 89 | 1019.2 |
| 20260507074555 | 48 | 235 | 0.0 | 0.0 | 0.00 | 0.00 | 0.00 | 89 | 1019.3 |
| 20260507073057 | 47 | 235 | 0.0 | 0.0 | 0.00 | 0.00 | 0.00 | 88 | 1019.3 |
| 20260507071549 | 48 | 235 | 0.0 | 0.0 | 0.00 | 0.00 | 0.00 | 88 | 1019.1 |
| 20260507070057 | 48 | 235 | 0.0 | 0.0 | 0.00 | 0.00 | 0.00 | 87 | 1019.0 |
| 20260507064546 | 48 | 235 | 0.0 | 0.0 | 0.00 | 0.00 | 0.00 | 87 | 1018.9 |
| 20260507063046 | 49 | 235 | 0.0 | 0.0 | 0.00 | 0.00 | 0.00 | 87 | 1018.9 |
| 20260507061541 | 49 | 235 | 0.0 | 0.0 | 0.00 | 0.00 | 0.00 | 87 | 1018.8 |
| 20260507060043 | 50 | 235 | 0.0 | 0.0 | 0.00 | 0.00 | 0.00 | 86 | 1018.8 |
| 20260507054542 | 51 | 235 | 0.0 | 0.0 | 0.00 | 0.00 | 0.00 | 86 | 1018.8 |
| 20260507053040 | 52 | 235 | 0.0 | 0.0 | 0.00 | 0.00 | 0.00 | 86 | 1018.6 |
| 20260507051539 | 53 | 235 | 0.0 | 0.0 | 0.00 | 0.00 | 0.00 | 86 | 1018.6 |
| 20260507050100 | 54 | 235 | 0.0 | 0.0 | 0.00 | 0.00 | 0.00 | 85 | 1018.5 |
| 20260507044549 | 55 | 235 | 0.0 | 0.0 | 0.00 | 0.00 | 0.00 | 85 | 1018.6 |
| 20260507043037 | 56 | 235 | 0.0 | 0.0 | 0.00 | 0.00 | 0.00 | 85 | 1018.4 |
| 20260507041537 | 56 | 235 | 0.0 | 0.0 | 0.00 | 0.00 | 0.00 | 85 | 1018.4 |
| 20260507040036 | 57 | 235 | 0.0 | 2.0 | 0.00 | 0.00 | 0.00 | 84 | 1018.4 |
| 20260507034540 | 58 | 192 | 0.0 | 0.0 | 0.00 | 0.00 | 0.00 | 83 | 1018.4 |
| 20260507033041 | 59 | 192 | 0.0 | 0.0 | 0.00 | 0.00 | 0.00 | 81 | 1018.3 |
| 20260507031535 | 61 | 192 | 0.0 | 0.0 | 0.00 | 0.00 | 0.00 | 77 | 1018.3 |
| 20260507030037 | 61 | 192 | 0.0 | 0.0 | 0.00 | 0.00 | 0.00 | 76 | 1018.2 |
| 20260507024542 | 62 | 201 | 0.0 | 0.0 | 0.00 | 0.00 | 0.00 | 75 | 1018.2 |
| 20260507023033 | 62 | 200 | 0.0 | 4.0 | 0.00 | 0.00 | 0.00 | 74 | 1018.0 |
| 20260507021546 | 62 | 202 | 0.0 | 3.0 | 0.00 | 0.00 | 0.00 | 74 | 1018.0 |
| 20260507020030 | 62 | 170 | 0.0 | 5.0 | 0.00 | 0.00 | 0.00 | 74 | 1018.2 |
| 20260507014528 | 62 | 206 | 1.0 | 6.0 | 0.00 | 0.00 | 0.00 | 73 | 1018.4 |
| 20260507013033 | 63 | 197 | 2.0 | 6.0 | 0.00 | 0.00 | 0.00 | 71 | 1018.5 |
| 20260507011532 | 64 | 55 | 0.0 | 7.0 | 0.00 | 0.00 | 0.00 | 70 | 1018.4 |
| 20260507010038 | 65 | 188 | 0.0 | 7.0 | 0.00 | 0.00 | 0.00 | 70 | 1018.5 |
| 20260507004526 | 66 | 129 | 0.0 | 5.0 | 0.00 | 0.00 | 0.00 | 67 | 1018.5 |
| 20260507003025 | 67 | 190 | 1.0 | 7.0 | 0.00 | 0.00 | 0.00 | 67 | 1018.4 |
| 20260507001524 | 67 | 227 | 1.0 | 5.0 | 0.00 | 0.00 | 0.00 | 67 | 1018.4 |
| 20260507000024 | 68 | 161 | 2.0 | 7.0 | 0.00 | 0.00 | 0.00 | 65 | 1018.4 |
| 20260506234523 | 69 | 178 | 0.0 | 7.0 | 0.00 | 0.00 | 0.00 | 65 | 1018.5 |
| 20260506233020 | 71 | 234 | 1.0 | 7.0 | 0.00 | 0.00 | 0.00 | 61 | 1018.6 |
| 20260506231524 | 72 | 277 | 0.0 | 2.0 | 0.00 | 0.00 | 0.00 | 63 | 1018.6 |
| 20260506230017 | 71 | 234 | 3.0 | 10.0 | 0.00 | 0.00 | 0.00 | 64 | 1018.8 |
| 20260506224517 | 71 | 254 | 3.0 | 10.0 | 0.00 | 0.00 | 0.00 | 63 | 1018.9 |
| 20260506223018 | 72 | 180 | 3.0 | 6.0 | 0.00 | 0.00 | 0.00 | 63 | 1019.1 |
| 20260506221514 | 70 | 171 | 1.0 | 9.0 | 0.00 | 0.00 | 0.00 | 64 | 1019.3 |
| 20260506220022 | 71 | 196 | 2.0 | 7.0 | 0.00 | 0.00 | 0.00 | 64 | 1019.4 |
| 20260506214512 | 70 | 192 | 1.0 | 6.0 | 0.00 | 0.00 | 0.00 | 69 | 1019.5 |
| 20260506213011 | 70 | 180 | 2.0 | 9.0 | 0.00 | 0.00 | 0.00 | 68 | 1019.6 |
| 20260506211510 | 71 | 236 | 2.0 | 7.0 | 0.00 | 0.00 | 0.00 | 68 | 1019.7 |
| 20260506210009 | 71 | 185 | 2.0 | 7.0 | 0.00 | 0.00 | 0.00 | 66 | 1019.8 |
| 20260506204506 | 69 | 244 | 2.0 | 8.0 | 0.00 | 0.00 | 0.00 | 70 | 1019.8 |
| 20260506203016 | 70 | 173 | 1.0 | 9.0 | 0.00 | 0.00 | 0.00 | 70 | 1020.1 |
| 20260506201507 | 69 | 160 | 1.0 | 10.0 | 0.00 | 0.00 | 0.00 | 70 | 1020.1 |
| 20260506200112 | 69 | 242 | 3.0 | 8.0 | 0.00 | 0.00 | 0.00 | 71 | 1020.2 |
| 20260506194619 | 68 | 136 | 0.0 | 8.0 | 0.00 | 0.00 | 0.00 | 74 | 1020.4 |
| 20260506193058 | 68 | 206 | 2.0 | 9.0 | 0.00 | 0.00 | 0.00 | 71 | 1020.5 |
| 20260506191558 | 68 | 176 | 2.0 | 6.0 | 0.00 | 0.00 | 0.00 | 72 | 1020.7 |
| 20260506190057 | 68 | 191 | 0.0 | 7.0 | 0.00 | 0.00 | 0.00 | 73 | 1020.8 |
| 20260506184604 | 68 | 120 | 0.0 | 5.0 | 0.00 | 0.00 | 0.00 | 73 | 1020.8 |
| 20260506183103 | 68 | 192 | 0.0 | 0.0 | 0.00 | 0.00 | 0.00 | 73 | 1020.9 |
| 20260506181557 | 68 | 193 | 0.0 | 0.0 | 0.00 | 0.00 | 0.00 | 72 | 1020.8 |
| 20260506180045 | 66 | 180 | 0.0 | 0.0 | 0.00 | 0.00 | 0.00 | 75 | 1020.8 |
| 20260506174542 | 65 | 169 | 0.0 | 0.0 | 0.00 | 0.00 | 0.00 | 77 | 1020.8 |
| 20260506173037 | 63 | 146 | 0.0 | 0.0 | 0.00 | 0.00 | 0.00 | 80 | 1020.9 |
| 20260506171542 | 62 | 296 | 0.0 | 0.0 | 0.00 | 0.00 | 0.00 | 81 | 1020.9 |
| 20260506170035 | 61 | 360 | 0.0 | 0.0 | 0.00 | 0.00 | 0.00 | 82 | 1021.0 |
| 20260506164527 | 60 | 347 | 0.0 | 0.0 | 0.00 | 0.00 | 0.00 | 84 | 1021.0 |
| 20260506163023 | 58 | 36 | 0.0 | 0.0 | 0.00 | 0.00 | 0.00 | 85 | 1021.1 |
| 20260506161523 | 56 | 36 | 0.0 | 0.0 | 0.00 | 0.00 | 0.00 | 85 | 1021.1 |
| 20260506160027 | 54 | 36 | 0.0 | 0.0 | 0.00 | 0.00 | 0.00 | 85 | 1021.2 |
| 20260506154510 | 53 | 36 | 0.0 | 0.0 | 0.00 | 0.00 | 0.00 | 86 | 1021.1 |
| 20260506153008 | 52 | 36 | 0.0 | 0.0 | 0.00 | 0.00 | 0.00 | 87 | 1021.0 |
| 20260506151509 | 52 | 327 | 0.0 | 0.0 | 0.00 | 0.00 | 0.00 | 89 | 1020.9 |
| 20260506150017 | 52 | 294 | 0.0 | 0.0 | 0.00 | 0.00 | 0.00 | 89 | 1020.9 |
| 20260506144505 | 52 | 71 | 0.0 | 0.0 | 0.00 | 0.00 | 0.00 | 90 | 1021.0 |
| 20260506143003 | 52 | 290 | 0.0 | 0.0 | 0.00 | 0.00 | 0.00 | 90 | 1020.8 |
| 20260506141558 | 51 | 292 | 0.0 | 0.0 | 0.00 | 0.00 | 0.00 | 90 | 1020.7 |
| 20260506140105 | 51 | 201 | 0.0 | 0.0 | 0.00 | 0.00 | 0.00 | 90 | 1020.6 |
| 20260506134553 | 51 | 200 | 0.0 | 0.0 | 0.00 | 0.00 | 0.00 | 90 | 1020.5 |
| 20260506133051 | 51 | 200 | 0.0 | 0.0 | 0.00 | 0.00 | 0.00 | 90 | 1020.4 |
| 20260506131545 | 51 | 200 | 0.0 | 0.0 | 0.00 | 0.00 | 0.00 | 89 | 1020.4 |
| 20260506130049 | 51 | 200 | 0.0 | 0.0 | 0.00 | 0.00 | 0.00 | 89 | 1020.3 |
| 20260506124539 | 50 | 200 | 0.0 | 0.0 | 0.00 | 0.00 | 0.00 | 89 | 1020.1 |
| 20260506123039 | 50 | 200 | 0.0 | 0.0 | 0.00 | 0.00 | 0.00 | 89 | 1020.1 |
| 20260506121540 | 50 | 200 | 0.0 | 0.0 | 0.00 | 0.00 | 0.00 | 89 | 1020.0 |
| 20260506120041 | 50 | 200 | 0.0 | 0.0 | 0.00 | 0.00 | 0.00 | 89 | 1020.0 |
| 20260506114541 | 50 | 200 | 0.0 | 0.0 | 0.00 | 0.00 | 0.00 | 89 | 1019.9 |
| 20260506113034 | 50 | 200 | 0.0 | 0.0 | 0.00 | 0.00 | 0.00 | 89 | 1019.8 |
| 20260506111535 | 50 | 200 | 0.0 | 0.0 | 0.00 | 0.00 | 0.00 | 89 | 1019.7 |
| 20260506110036 | 50 | 200 | 0.0 | 0.0 | 0.00 | 0.00 | 0.00 | 89 | 1019.6 |
| 20260506104605 | 50 | 200 | 0.0 | 0.0 | 0.00 | 0.00 | 0.00 | 89 | 1019.6 |
| 20260506103049 | 50 | 200 | 0.0 | 0.0 | 0.00 | 0.00 | 0.00 | 89 | 1019.5 |
| 20260506101559 | 50 | 200 | 0.0 | 0.0 | 0.00 | 0.00 | 0.00 | 89 | 1019.3 |
| 20260506094519 | 50 | 200 | 0.0 | 0.0 | 0.00 | 0.02 | 0.00 | 88 | 1019.1 |
| 20260506093015 | 50 | 200 | 0.0 | 0.0 | 0.00 | 0.02 | 0.00 | 88 | 1019.1 |
| 20260506091514 | 50 | 200 | 0.0 | 0.0 | 0.00 | 0.02 | 0.00 | 88 | 1019.3 |
| 20260506090008 | 50 | 200 | 0.0 | 0.0 | 0.00 | 0.02 | 0.00 | 88 | 1019.1 |
| 20260506084505 | 50 | 200 | 0.0 | 0.0 | 0.00 | 0.06 | 0.00 | 88 | 1019.3 |
| 20260506083100 | 49 | 200 | 0.0 | 0.0 | 0.00 | 0.06 | 0.00 | 88 | 1019.4 |